Regional Weather Roundup
Issued by NWS Columbia, SC

Home | Current Version | Previous Version | Text Only | Print | Product List | Glossary On
Versions: 1 2 3 4 5 6 7 8 9 10 11 12 13 14 15 16 17 18 19 20 21 22 23 24 25 26 27 28 29 30 31 32 33 34 35 36 37 38 39 40 41 42 43 44 45 46 47 48 49
000
ASUS42 KCAE 292310
RWRCAE
REGIONAL WEATHER ROUNDUP
NATIONAL WEATHER SERVICE COLUMBIA SC
700 PM EDT SAT AUG 29 2015

NOTE: "FAIR" INDICATES FEW OR NO CLOUDS BELOW 12,000 FEET WITH NO
SIGNIFICANT WEATHER AND/OR OBSTRUCTIONS TO VISIBILITY.

NOT ALL STATIONS ARE QUALITY CONTROLLED BY THE NATIONAL
WEATHER SERVICE. USE DATA WITH CAUTION...ESPECIALLY
DEWPOINT OBSERVATIONS.

SCZ001>056-GAZ040-063>065-077-300000-
...UPSTATE SOUTH CAROLINA...

CITY           SKY/WX    TMP DP  RH WIND       PRES   REMARKS
ANDERSON       CLOUDY    79  62  56 SE3       30.14F
LIBERTY        CLOUDY    78  63  60 S7        30.15S
SPARTANBURG    PTSUNNY   81  59  47 CALM      30.14S
CLEMSON        CLOUDY    79  63  57 CALM      30.16S
GREENVILLE     CLOUDY    80  59  48 S8        30.16S
GREENWOOD      CLOUDY    80  60  50 SE3       30.14F
GREER          CLOUDY    80  61  52 S6        30.14R
ROCK HILL      PTSUNNY   79  57  46 CALM      30.15S
CHESTER        MOCLDY    79  59  50 CALM      30.15S
LAURENS        MOCLDY    81  63  54 SE5       30.14S


...CENTRAL SOUTH CAROLINA...

CITY           SKY/WX    TMP DP  RH WIND       PRES   REMARKS
COLUMBIA APT   PTSUNNY   84  53  34 E7        30.11S
COLUMBIA OWENS PTSUNNY   83  54  36 CALM      30.13R
DARLINGTON     PTCLDY    79  61  53 CALM      30.13R
FLORENCE       MOCLDY    82  58  43 NE7       30.12R
MCENTIRE ANGB  PTSUNNY   81  58  45 E3        30.12S
ORANGEBURG     PTSUNNY   81  56  42 E3        30.12R
SUMTER SHAW    MOCLDY    82  54  38 NE8       30.10S
NEWBERRY       CLOUDY    79  63  57 NE5       30.16S
AIKEN          FAIR      81  48  32 E5        30.16R
BARNWELL       FAIR      82  63  51 SE3       30.12S
MANNING        FAIR      81  54  39 CALM      30.12R
CAMDEN         FAIR      82  59  44 SE3       30.13R
LANCASTER      MOCLDY    82  57  42 NE3       30.14S
WINNSBORO      MOCLDY    81  55  41 CALM      30.13S


...EASTERN AND COASTAL SOUTH CAROLINA...

CITY           SKY/WX    TMP DP  RH WIND       PRES   REMARKS
MYRTLE BEACH   PTCLDY    82  66  57 E6        30.12S
N MYRTLE BCH   MOCLDY    81  70  69 CALM      30.10S
CONWAY         FAIR      79  72  78 CALM      30.11R
MARION         FAIR      81  59  47 CALM      30.12R
HARTSVILLE     FAIR      81  55  41 CALM      30.12R
FLORENCE       MOCLDY    82  58  43 NE7       30.12R
DARLINGTON     PTCLDY    79  61  53 CALM      30.13R
CHARLESTON APT MOCLDY    81  69  67 NE6       30.09F
MOUNT PLEASANT MOCLDY    81  73  78 CALM      30.10S
WALTERBORO     PTCLDY    81  63  54 CALM      30.11S
BEAUFORT       MOCLDY    80  70  71 NE5       30.10S


...EASTERN GEORGIA...

CITY           SKY/WX    TMP DP  RH WIND       PRES   REMARKS
AUGUSTA BUSH F CLOUDY    80  66  62 E3        30.10R
AUGUSTA DANIEL CLOUDY    83  58  42 E5        30.12S
THOMSON        CLOUDY    83  64  52 CALM      30.16S
WASHINGTON     FAIR      81  72  74 CALM      30.12F
SYLVANIA       CLOUDY    79  71  75 E5        30.11S
STATESBORO     CLOUDY    80  71  74 CALM      30.10S
SAVANNAH       PTSUNNY   80  69  69 E8        30.10R


...SOUTHERN NORTH CAROLINA...

CITY           SKY/WX    TMP DP  RH WIND       PRES   REMARKS
CHARLOTTE      CLOUDY    80  58  46 S9        30.14F
MONROE         MOSUNNY   77  64  64 CALM      30.13F
WADESBORO      PTCLDY    83  56  39 CALM      30.12S
ROCKINGHAM     PTCLDY    80  57  45 CALM      30.12S
RUTHERFORDTON  CLOUDY    80  57  45 CALM      30.16R
ASHEVILLE      CLOUDY    75  58  55 S7        30.20S

$$


USA.gov is the U.S. government's official web portal to all federal, state and local government web resources and services.